FW5818 Weather Reports


Display with metric or nautical units.
time (UTC)temp
F
wind
direction
speed
MPH
gust
MPH
rain 1hr
in
rain 24hr
in
rain mn
in
humidity
%
barometer
mb
20260904001607 91 0 0.0 0.0 0.00 0.00 0.00 61 1013.9
20260903234556 94 146 0.0 2.0 0.00 0.00 0.00 56 1013.9
20260903233052 95 0 0.0 3.0 0.00 0.00 0.00 55 1013.7
20260903231604 95 0 1.0 4.0 0.00 0.00 0.00 54 1013.7
20260903230058 95 136 0.0 2.0 0.00 0.00 0.00 54 1013.6
20260903224554 95 186 0.0 3.0 0.00 0.00 0.00 55 1013.6
20260903223049 95 159 1.0 5.0 0.00 0.00 0.00 54 1013.6
20260903221558 95 152 0.0 5.0 0.00 0.00 0.00 55 1013.6
20260903220058 94 178 1.0 8.0 0.00 0.00 0.00 56 1013.8
20260903214550 93 144 1.0 5.0 0.00 0.00 0.00 57 1013.8
20260903213110 94 196 0.0 4.0 0.00 0.00 0.00 57 1013.9
20260903211555 95 182 2.0 8.0 0.00 0.00 0.00 53 1014.0
20260903210055 96 126 2.0 8.0 0.00 0.00 0.00 53 1014.3
20260903204557 95 0 1.0 9.0 0.00 0.00 0.00 53 1014.3
20260903203101 96 80 1.0 5.0 0.00 0.00 0.00 53 1014.4
20260903201558 94 192 2.0 7.0 0.00 0.00 0.00 55 1014.8
20260903200107 94 128 1.0 7.0 0.00 0.00 0.00 54 1014.9
20260903194603 94 0 2.0 9.0 0.00 0.00 0.00 55 1015.2
20260903193057 95 143 4.0 13.0 0.00 0.00 0.00 54 1015.1
20260903191559 95 177 2.0 9.0 0.00 0.00 0.00 55 1015.4
20260903190052 94 228 1.0 7.0 0.00 0.00 0.00 56 1015.6
20260903184606 93 114 5.0 12.0 0.00 0.00 0.00 58 1015.8
20260903183057 93 68 2.0 8.0 0.00 0.00 0.00 56 1015.9
20260903181559 93 191 2.0 9.0 0.00 0.00 0.00 57 1016.1
20260903180110 92 202 3.0 11.0 0.00 0.00 0.00 57 1016.4
20260903174555 92 149 2.0 11.0 0.00 0.00 0.00 57 1016.6
20260903173100 92 171 2.0 8.0 0.00 0.00 0.00 60 1016.9
20260903171600 92 242 1.0 7.0 0.00 0.00 0.00 60 1016.9
20260903170059 91 191 1.0 11.0 0.00 0.00 0.00 61 1017.1
20260903164556 91 188 3.0 10.0 0.00 0.00 0.00 61 1017.2
20260903163133 89 136 0.0 6.0 0.00 0.00 0.00 66 1017.3
20260903161558 88 214 2.0 6.0 0.00 0.00 0.00 67 1017.4
20260903160057 86 182 2.0 8.0 0.00 0.00 0.00 69 1017.6
20260903154559 85 0 1.0 6.0 0.00 0.00 0.00 71 1017.6
20260903153055 85 0 0.0 6.0 0.00 0.00 0.00 73 1017.6
20260903151600 84 136 1.0 7.0 0.00 0.00 0.00 75 1017.5
20260903150101 83 225 2.0 9.0 0.00 0.00 0.00 77 1017.5
20260903144557 82 229 2.0 6.0 0.00 0.00 0.00 79 1017.6
20260903143057 82 209 3.0 6.0 0.00 0.00 0.00 81 1017.6
20260903141600 81 0 0.0 5.0 0.00 0.00 0.00 83 1017.8
20260903134628 78 191 2.0 6.0 0.00 0.00 0.00 87 1017.9
20260903133058 76 0 1.0 4.0 0.00 0.00 0.00 92 1018.0
20260903131553 74 0 0.0 1.0 0.00 0.00 0.00 95 1017.9
20260903130106 74 0 0.0 0.0 0.00 0.00 0.00 95 1017.9
20260903124556 73 0 0.0 0.0 0.00 0.00 0.00 95 1017.9
20260903123108 72 0 0.0 0.0 0.00 0.00 0.00 94 1017.8
20260903121558 72 0 0.0 0.0 0.00 0.00 0.00 94 1017.7
20260903120119 72 0 0.0 0.0 0.00 0.00 0.00 93 1017.5
20260903114606 72 0 0.0 0.0 0.00 0.00 0.00 93 1017.4
20260903113058 72 0 0.0 0.0 0.00 0.00 0.00 93 1017.3
20260903111600 72 0 0.0 0.0 0.00 0.00 0.00 93 1017.1
20260903104601 73 0 0.0 0.0 0.00 0.00 0.00 92 1016.7
20260903103057 73 0 0.0 0.0 0.00 0.00 0.00 92 1016.6
20260903101559 73 0 0.0 0.0 0.00 0.00 0.00 92 1016.5
20260903100100 73 0 0.0 0.0 0.00 0.00 0.00 91 1016.4
20260903094605 74 0 0.0 0.0 0.00 0.00 0.00 91 1016.3
20260903093104 74 0 0.0 0.0 0.00 0.00 0.00 91 1016.3
20260903091602 74 0 0.0 0.0 0.00 0.00 0.00 91 1016.0
20260903084558 74 0 0.0 0.0 0.00 0.00 0.00 90 1016.2
20260903083054 75 0 0.0 0.0 0.00 0.00 0.00 90 1016.1
20260903081557 75 0 0.0 0.0 0.00 0.00 0.00 89 1016.1
20260903080103 75 0 0.0 0.0 0.00 0.00 0.00 89 1016.2
20260903074623 75 0 0.0 0.0 0.00 0.00 0.00 88 1016.2
20260903073103 76 0 0.0 0.0 0.00 0.00 0.00 88 1016.1
20260903071555 76 0 0.0 1.0 0.00 0.00 0.00 88 1016.3
20260903070055 76 0 0.0 0.0 0.00 0.00 0.00 87 1016.3
20260903064554 76 0 0.0 0.0 0.00 0.00 0.00 87 1016.2
20260903063106 77 0 0.0 0.0 0.00 0.00 0.00 86 1016.3
20260903061615 77 0 0.0 1.0 0.00 0.00 0.00 86 1016.4
20260903060103 77 0 0.0 1.0 0.00 0.00 0.00 85 1016.3
20260903054602 77 0 0.0 0.0 0.00 0.00 0.00 85 1016.4
20260903053057 77 0 0.0 0.0 0.00 0.00 0.00 84 1016.3
20260903051555 78 0 0.0 0.0 0.00 0.00 0.00 84 1016.2
20260903050058 78 0 0.0 0.0 0.00 0.00 0.00 83 1016.2
20260903044558 78 0 0.0 1.0 0.00 0.00 0.00 82 1016.2
20260903043051 79 148 0.0 0.0 0.00 0.00 0.00 82 1016.3
20260903041610 79 0 0.0 0.0 0.00 0.00 0.00 82 1016.2
20260903040054 79 0 0.0 2.0 0.00 0.00 0.00 82 1016.2
20260903034551 79 0 0.0 2.0 0.00 0.00 0.00 82 1016.2
20260903033057 80 0 0.0 0.0 0.00 0.00 0.00 81 1016.1
20260903031554 80 0 0.0 0.0 0.00 0.00 0.00 81 1016.0
20260903030056 80 0 0.0 0.0 0.00 0.00 0.00 80 1015.9
20260903024556 80 0 0.0 0.0 0.00 0.00 0.00 79 1016.0
20260903023059 81 0 0.0 0.0 0.00 0.00 0.00 78 1016.0
20260903021600 82 0 0.0 0.0 0.00 0.00 0.00 77 1015.9
20260903014622 83 0 0.0 0.0 0.00 0.00 0.00 74 1015.6
20260903013103 84 0 0.0 0.0 0.00 0.00 0.00 72 1015.5
20260903011622 85 0 0.0 0.0 0.00 0.00 0.00 70 1015.3
20260903010113 87 0 0.0 0.0 0.00 0.00 0.00 68 1015.1
20260903004607 88 0 0.0 0.0 0.00 0.00 0.00 66 1015.2
20260903003117 90 0 0.0 0.0 0.00 0.00 0.00 64 1015.0